Temp
7 6 7 7 7 6 6 6 7 7 7 6 6 6 6 5 5 5 5 6 6 6 6 6 6 6 6 6 6 6 6 6 6 6 6 6 6 6 7 7 7 7
7 6 6 6 6 6 6 6 6 6 6 6 6 6 6 5 5 5 5 5 6 6 6 6 6 6 6 6 6 6 6 5 6 6 6 6 6 6 6 7 7 7
6 6 6 6 6 6 6 6 6 6 6 6 5 5 6 6 6 6 5 5 5 5 5 6 6 6 6 6 5 5 5 5 6 5 6 6 6 6 6 7 7 7
6 6 6 6 6 6 6 6 6 5 5 5 5 5 5 5 5 5 5 5 5 5 5 6 6 6 6 6 5 5 5 6 6 6 6 6 6 6 6 7 7 7
5 5 5 5 5 5 5 5 5 5 5 5 5 5 5 5 5 5 5 5 5 5 6 6 6 6 6 6 6 6 6 6 6 6 6 6 6 6 6 6 7 6
5 5 4 4 4 4 4 5 5 5 5 5 5 5 5 5 5 5 5 5 5 5 5 6 6 6 6 6 6 6 6 6 6 6 6 6 6 6 6 6 6 6
4 4 4 4 4 4 4 4 4 4 5 4 4 4 4 4 5 5 5 5 5 5 5 5 6 6 6 5 5 5 6 6 6 6 6 6 6 6 6 6 6 6
4 4 4 4 4 4 4 4 4 4 4 4 4 4 4 4 4 5 5 5 5 5 5 5 5 6 5 5 5 5 6 5 5 6 6 6 6 7 6 6 6 6
4 4 4 4 4 4 4 4 3 4 4 3 3 4 4 4 4 4 5 5 4 4 5 5 5 5 5 5 5 5 6 5 5 6 6 6 6 6 6 6 6 6
4 4 4 4 4 4 4 4 3 4 3 3 3 3 4 4 4 4 4 4 5 5 5 5 5 5 5 5 6 6 6 6 5 5 5 6 6 6 6 6 6 7
4 4 4 3 3 3 4 4 4 4 3 3 3 3 3 4 4 4 4 4 5 5 5 5 5 5 5 5 6 6 6 6 5 5 5 5 6 6 6 6 6 7
4 4 3 3 3 3 3 3 3 3 3 3 2 3 3 3 4 4 4 4 5 5 5 5 5 5 5 5 5 5 6 5 5 5 5 5 6 6 6 6 7 7
3 4 3 3 3 3 3 3 3 3 2 2 2 3 3 3 4 4 4 4 4 4 5 5 5 5 5 5 5 5 6 6 5 5 5 5 6 6 6 7 7 7
3 3 3 3 3 3 3 3 2 2 2 2 2 3 3 3 4 4 4 4 4 4 4 5 5 5 5 5 5 5 5 5 5 5 5 6 6 6 7 7 7 7
3 3 3 3 3 3 2 2 2 2 2 2 2 2 3 3 4 4 4 4 4 4 4 4 4 5 5 5 5 5 5 5 5 5 5 6 6 6 7 7 7 7
3 3 3 3 3 3 2 2 2 2 2 2 2 3 3 3 4 3 3 3 3 4 4 4 4 4 4 4 5 5 5 5 5 5 6 6 6 7 7 7 7 7
3 3 3 3 3 3 3 2 2 2 2 2 2 3 3 3 3 3 3 3 3 3 4 4 4 4 4 4 5 5 5 5 5 6 6 6 6 6 7 7 8 8
3 3 3 2 2 3 3 2 2 2 2 2 2 3 3 3 3 3 3 3 3 3 3 4 4 4 4 4 5 5 5 5 5 6 6 6 6 6 7 7 8 7
3 3 3 2 2 2 2 2 2 2 2 2 2 2 3 3 3 3 3 3 3 3 3 3 4 4 4 4 5 5 5 5 5 6 6 6 6 7 7 7 7 7
3 3 3 3 3 3 2 2 2 2 2 2 2 3 3 3 3 3 3 3 3 3 3 3 3 4 4 4 5 5 4 5 5 6 6 6 6 6 7 6 6 6
3 3 3 3 3 3 3 2 2 2 2 2 2 3 3 3 3 3 3 2 2 2 2 3 3 4 4 4 4 4 4 5 5 6 6 6 6 6 6 6 6 6
4 3 3 3 3 3 3 3 2 2 2 3 3 3 3 3 3 3 2 2 2 2 2 3 3 4 4 4 4 4 5 5 5 5 5 6 6 6 6 6 6 6
4 4 4 3 3 3 3 3 3 3 2 3 3 3 3 3 3 3 2 2 2 2 2 2 2 3 4 4 4 4 5 5 5 5 5 5 5 6 6 6 6 6
4 4 4 4 3 3 3 3 3 3 2 3 3 3 3 3 3 3 2 2 2 2 2 2 2 2 3 4 4 4 5 5 5 5 5 5 5 6 6 6 6 6
4 4 5 4 4 3 3 3 3 2 2 3 3 3 3 3 3 3 2 2 2 2 2 2 2 2 2 3 4 4 4 5 5 4 5 5 5 5 6 6 6 5
4 4 5 4 4 3 3 3 3 2 2 3 3 3 2 3 3 3 3 2 2 2 2 2 2 2 2 2 3 3 3 4 4 4 4 5 4 4 5 5 5 5
Height
3139 3138 3136 3135 3134 3134 3134 3133 3132 3131 3131 3131 3132 3132 3132 3131 3130 3129 3130 3131 3131 3130 3130 3130 3129 3128 3128 3129 3130 3129 3130 3130 3131 3133 3134 3135 3137 3139 3141 3143 3144 3145
3135 3134 3132 3131 3131 3131 3130 3130 3129 3128 3127 3127 3127 3128 3127 3127 3126 3125 3125 3125 3124 3124 3124 3125 3124 3124 3124 3124 3125 3126 3126 3127 3128 3129 3130 3131 3132 3133 3135 3136 3138 3139
3131 3130 3129 3128 3128 3127 3126 3126 3125 3125 3124 3123 3123 3123 3123 3122 3122 3121 3121 3121 3120 3119 3119 3119 3119 3119 3120 3121 3122 3122 3122 3123 3124 3125 3126 3127 3128 3128 3129 3131 3131 3133
3129 3127 3125 3125 3124 3123 3123 3122 3121 3121 3121 3120 3120 3119 3119 3119 3118 3117 3117 3117 3117 3116 3115 3114 3114 3114 3115 3117 3118 3117 3117 3118 3119 3120 3121 3122 3122 3123 3124 3125 3126 3127
3127 3125 3124 3122 3121 3120 3120 3119 3118 3117 3117 3116 3116 3116 3115 3115 3113 3113 3113 3112 3111 3111 3112 3110 3109 3109 3110 3111 3113 3113 3113 3113 3114 3115 3115 3116 3117 3118 3119 3120 3121 3123
3125 3123 3122 3120 3119 3118 3117 3117 3116 3114 3113 3112 3111 3111 3110 3110 3109 3109 3108 3107 3105 3104 3105 3104 3104 3104 3104 3105 3106 3107 3108 3108 3108 3108 3109 3110 3112 3112 3113 3115 3116 3119
3123 3121 3120 3118 3117 3115 3114 3114 3113 3111 3110 3108 3107 3106 3105 3105 3105 3104 3103 3102 3101 3099 3099 3098 3097 3098 3098 3098 3099 3101 3101 3102 3102 3102 3102 3104 3105 3105 3108 3110 3111 3114
3120 3119 3117 3116 3114 3113 3112 3110 3109 3108 3106 3105 3104 3103 3101 3100 3100 3099 3098 3096 3095 3094 3093 3092 3091 3092 3092 3092 3093 3094 3095 3095 3095 3096 3096 3098 3099 3099 3102 3105 3106 3108
3118 3116 3115 3113 3112 3111 3109 3107 3106 3105 3103 3102 3100 3099 3098 3096 3095 3094 3093 3092 3090 3089 3088 3087 3086 3086 3087 3087 3087 3088 3089 3090 3090 3091 3091 3092 3093 3093 3096 3098 3100 3102
3115 3114 3112 3110 3109 3108 3106 3104 3103 3101 3099 3098 3097 3095 3094 3092 3091 3089 3088 3087 3086 3085 3084 3083 3081 3081 3081 3082 3083 3083 3084 3084 3085 3086 3087 3087 3087 3088 3090 3091 3093 3096
3113 3111 3109 3107 3106 3105 3104 3102 3100 3098 3096 3094 3093 3092 3091 3089 3087 3085 3084 3083 3081 3080 3079 3078 3077 3077 3077 3078 3079 3079 3079 3079 3080 3081 3082 3081 3081 3082 3084 3085 3086 3089
3110 3109 3107 3105 3104 3103 3101 3099 3097 3095 3093 3091 3089 3089 3087 3085 3083 3082 3080 3078 3077 3076 3075 3074 3073 3073 3074 3074 3074 3074 3074 3073 3074 3075 3076 3076 3075 3076 3077 3079 3080 3082
3109 3107 3105 3104 3102 3101 3099 3097 3095 3093 3091 3089 3087 3086 3085 3082 3080 3078 3076 3074 3073 3071 3071 3071 3071 3071 3070 3070 3070 3070 3069 3068 3068 3068 3068 3069 3068 3069 3070 3072 3074 3076
3108 3106 3104 3103 3101 3099 3098 3096 3094 3092 3090 3088 3086 3085 3083 3080 3078 3075 3072 3071 3069 3068 3067 3067 3067 3067 3067 3066 3066 3065 3064 3062 3061 3061 3061 3061 3061 3062 3063 3064 3066 3069
3107 3105 3103 3102 3100 3098 3096 3095 3093 3091 3089 3087 3086 3084 3082 3079 3076 3073 3070 3068 3066 3065 3064 3063 3063 3064 3064 3062 3061 3059 3058 3057 3056 3055 3055 3054 3054 3054 3055 3057 3059 3061
3105 3103 3102 3100 3099 3098 3096 3094 3092 3090 3088 3086 3085 3083 3080 3078 3074 3071 3068 3066 3063 3062 3061 3061 3060 3060 3060 3058 3056 3055 3053 3052 3051 3050 3050 3048 3047 3047 3049 3051 3053 3055
3103 3102 3100 3099 3098 3097 3095 3093 3091 3089 3087 3085 3083 3081 3078 3076 3073 3070 3067 3064 3062 3060 3059 3058 3057 3056 3055 3054 3052 3050 3049 3048 3046 3046 3045 3044 3042 3042 3043 3045 3047 3049
3102 3100 3099 3097 3096 3095 3094 3092 3090 3088 3085 3083 3081 3079 3076 3074 3071 3068 3066 3063 3061 3059 3057 3056 3054 3053 3051 3050 3049 3047 3045 3044 3042 3041 3041 3040 3038 3038 3039 3040 3041 3043
3101 3099 3097 3096 3095 3094 3092 3090 3089 3086 3084 3082 3080 3077 3075 3072 3070 3067 3064 3062 3060 3057 3055 3053 3051 3050 3048 3047 3047 3045 3043 3042 3040 3038 3038 3037 3036 3035 3035 3036 3037 3038
3099 3098 3096 3095 3093 3092 3091 3089 3087 3085 3083 3081 3079 3077 3074 3071 3069 3066 3063 3061 3059 3057 3054 3052 3049 3048 3046 3045 3044 3043 3040 3039 3038 3036 3036 3035 3034 3033 3033 3033 3034 3035
3098 3096 3095 3093 3092 3091 3089 3088 3086 3084 3082 3080 3078 3075 3073 3070 3068 3065 3063 3061 3059 3057 3054 3051 3048 3046 3044 3043 3041 3040 3038 3037 3035 3034 3032 3031 3031 3031 3031 3032 3032 3034
3097 3095 3094 3092 3091 3089 3088 3087 3085 3083 3081 3079 3077 3075 3072 3070 3067 3065 3063 3061 3059 3056 3054 3050 3047 3045 3043 3041 3040 3038 3037 3035 3034 3032 3030 3029 3029 3028 3029 3030 3031 3032
3096 3094 3092 3091 3089 3088 3087 3085 3084 3082 3080 3078 3076 3074 3072 3070 3067 3065 3063 3061 3058 3056 3053 3050 3047 3044 3042 3040 3039 3037 3036 3034 3033 3032 3031 3029 3028 3028 3028 3029 3030 3031
3095 3093 3091 3090 3088 3087 3086 3084 3082 3081 3079 3077 3075 3073 3072 3070 3067 3065 3063 3061 3058 3056 3053 3050 3047 3044 3042 3040 3039 3037 3035 3034 3033 3033 3032 3030 3029 3028 3028 3028 3030 3031
3094 3092 3090 3089 3087 3086 3084 3083 3081 3079 3078 3077 3075 3073 3071 3070 3067 3065 3063 3061 3059 3057 3054 3051 3048 3045 3043 3040 3039 3037 3036 3034 3033 3033 3033 3032 3031 3029 3028 3028 3030 3031
3093 3091 3089 3087 3086 3084 3083 3081 3080 3078 3077 3075 3074 3072 3070 3069 3067 3065 3063 3062 3060 3058 3055 3053 3050 3047 3044 3041 3039 3038 3037 3035 3034 3033 3033 3033 3032 3032 3031 3030 3030 3031
Wind_Speed
25 24 23 24 25 25 24 24 24 22 22 24 26 28 29 29 31 31 31 32 33 32 32 32 33 34 35 34 33 35 36 35 36 36 35 37 40 42 40 37 39 41
26 25 25 24 24 24 24 22 22 22 24 25 26 28 30 31 32 33 33 33 33 33 33 33 33 33 35 35 34 35 35 34 34 33 32 33 35 38 39 38 39 39
25 25 25 25 24 25 25 24 23 25 26 26 28 29 31 33 34 35 35 35 34 35 35 34 34 34 35 34 34 34 34 34 35 34 32 30 32 35 37 37 38 38
24 24 25 25 24 24 25 26 26 27 28 29 31 32 33 34 35 35 36 37 38 37 36 37 37 37 37 36 34 35 35 33 34 35 35 32 30 32 35 35 36 37
23 23 24 24 24 23 23 24 26 28 29 31 32 33 34 34 34 35 35 38 40 38 36 37 38 38 39 38 36 36 36 36 35 35 36 34 31 30 32 34 35 36
21 22 22 22 23 23 22 23 24 26 28 30 32 33 33 34 34 34 35 36 38 36 35 37 38 38 39 39 37 36 36 37 37 37 37 36 34 32 31 33 35 36
20 21 22 22 22 22 23 24 24 26 26 28 29 30 32 32 32 33 33 33 34 33 33 35 37 37 38 38 37 36 35 36 38 39 38 37 37 37 35 35 35 36
21 21 22 23 23 23 24 25 25 25 25 25 26 27 28 28 29 30 31 31 31 31 31 32 33 33 34 35 37 36 37 38 39 39 38 39 39 39 38 37 36 36
21 22 23 24 24 24 24 24 24 24 25 25 25 25 24 24 26 28 29 29 29 28 27 27 29 29 29 30 33 35 36 38 38 38 38 40 41 41 41 39 37 36
21 21 23 24 23 21 22 22 22 23 24 25 24 23 21 21 22 25 26 27 27 26 25 24 25 27 27 27 29 32 34 35 36 37 38 41 43 44 44 43 41 40
21 21 22 23 21 20 20 22 23 23 23 23 23 21 19 19 21 23 25 25 24 24 24 22 22 24 24 24 26 29 32 34 35 37 39 42 45 46 46 46 45 44
20 21 21 21 20 20 21 22 23 23 23 22 20 18 16 19 21 22 23 23 22 22 22 21 20 21 22 23 25 27 30 34 36 37 39 41 44 47 47 47 47 46
20 20 19 18 18 19 20 20 20 21 22 21 17 14 16 21 22 22 21 21 19 19 19 19 17 18 20 22 24 26 29 33 36 39 41 42 44 46 48 49 48 47
18 18 17 16 18 19 19 18 18 19 20 19 16 15 17 21 22 21 19 18 17 16 16 16 15 15 16 19 21 23 26 31 35 37 40 42 44 45 46 47 48 48
18 17 17 17 19 19 19 18 18 18 17 17 16 16 17 19 20 21 20 17 16 15 15 15 14 13 15 18 20 21 22 25 28 29 31 35 40 42 42 43 45 47
18 18 17 18 19 19 20 19 18 18 16 15 16 17 17 18 19 21 21 20 17 15 15 15 14 14 17 20 21 22 22 23 23 25 26 30 34 38 39 39 40 43
17 18 18 18 19 20 20 18 17 17 16 16 17 17 17 19 20 21 21 20 19 15 13 14 15 15 18 19 21 23 23 22 24 26 26 27 29 33 36 37 38 40
16 16 17 18 19 20 19 17 17 18 17 18 18 17 18 19 20 22 22 21 19 17 15 14 16 16 18 19 20 19 17 18 21 23 24 22 22 26 31 35 37 37
16 16 16 17 18 18 19 18 18 18 19 19 18 18 19 20 21 23 23 21 19 19 18 16 16 17 17 19 21 19 16 17 18 17 19 19 19 21 24 28 32 34
19 17 17 17 18 18 18 19 19 19 20 19 18 19 19 20 22 24 23 22 21 22 22 19 17 17 16 17 18 18 17 18 17 15 16 17 18 18 18 20 24 29
20 20 19 18 19 18 18 20 19 19 19 18 18 19 20 21 22 23 23 23 22 22 22 20 18 17 15 14 15 16 15 14 14 13 13 13 15 16 16 16 19 23
20 21 20 19 19 19 19 19 19 18 19 18 18 19 20 20 21 22 23 23 22 23 22 20 19 17 14 13 14 14 14 12 11 11 10 11 12 13 16 17 19 21
21 21 20 19 19 19 19 18 19 19 19 19 19 18 19 19 21 22 22 22 22 24 24 21 18 16 13 12 13 14 12 11 11 11 10 9 7 7 14 16 17 20
22 22 20 19 19 19 19 18 18 19 18 19 19 19 19 19 19 20 20 21 21 24 25 22 18 16 14 12 13 13 10 8 8 8 4 1 2 2 11 16 15 16
22 23 22 19 18 19 19 18 18 18 17 17 19 20 20 20 19 19 19 20 21 23 25 23 19 16 14 12 12 13 11 5 2 4 3 3 2 1 8 15 16 15
21 23 22 19 18 18 18 18 18 18 17 17 18 20 20 20 20 19 19 19 19 21 25 24 21 19 15 12 13 14 11 7 4 1 4 5 4 3 3 11 15 18
Wind_Direction
295 290 288 287 286 285 281 276 271 266 264 261 262 265 267 268 268 267 267 264 262 263 264 265 264 265 268 267 265 264 261 258 255 256 260 257 251 251 252 250 250 252
298 293 289 288 287 286 284 277 270 268 267 264 264 265 265 266 268 269 269 266 265 267 267 265 264 263 265 267 266 265 261 255 253 256 258 252 248 248 248 247 247 250
302 297 293 291 289 287 285 281 277 274 272 270 271 271 271 271 272 273 272 269 267 267 268 266 266 264 264 264 264 263 261 254 251 253 253 250 245 244 246 246 245 248
303 301 298 297 296 292 287 283 281 279 278 278 277 278 278 278 278 276 274 271 266 263 263 264 265 266 265 263 260 261 261 257 252 250 248 248 247 246 247 247 246 247
304 302 302 303 304 300 294 289 287 285 284 282 280 279 279 279 279 278 277 277 275 270 264 264 266 266 264 261 256 257 257 253 251 249 245 244 246 248 249 249 247 245
301 300 300 302 304 303 300 296 293 291 289 286 283 281 281 279 278 277 278 279 279 276 270 265 265 264 262 258 253 253 253 249 247 246 243 243 245 246 247 249 248 244
300 297 296 299 301 303 303 301 299 297 294 292 289 286 283 280 277 276 278 279 278 276 272 266 262 260 258 256 251 249 249 247 246 245 245 246 248 247 246 248 247 243
303 301 300 301 304 307 308 306 303 301 300 299 297 293 290 286 282 279 280 281 279 276 274 270 265 259 256 255 251 247 245 246 247 247 248 248 250 252 251 249 246 242
307 304 304 306 310 311 311 308 303 299 299 300 298 295 293 292 288 285 284 283 280 277 274 271 266 258 254 254 252 247 244 245 247 248 250 250 248 248 249 247 245 242
312 309 308 310 313 314 313 311 306 301 300 301 298 294 298 301 296 292 290 287 284 279 273 267 260 253 249 248 249 249 247 248 249 248 250 251 248 246 245 245 245 243
317 315 312 311 312 315 315 314 310 305 306 307 297 289 301 311 304 297 293 290 287 282 275 270 262 257 254 247 246 250 252 252 252 251 252 253 253 251 248 247 246 244
321 318 314 313 315 318 318 317 313 311 315 316 301 290 305 315 309 302 295 291 288 281 278 279 271 263 262 257 252 254 256 257 256 255 255 255 255 254 251 249 247 244
325 323 321 323 326 326 325 324 322 324 329 326 307 298 314 318 314 311 304 296 289 279 277 283 278 265 260 260 261 261 261 262 260 258 256 255 255 254 252 250 248 245
328 329 332 337 337 333 331 331 331 336 341 336 320 309 315 318 318 321 318 307 295 284 280 281 278 271 265 263 265 266 266 264 260 258 257 255 254 253 250 248 246 246
328 331 336 342 343 340 335 333 335 337 337 336 326 312 307 311 321 330 330 321 304 288 282 278 273 272 274 274 274 272 271 268 261 258 260 259 256 252 248 245 243 244
328 329 331 335 339 341 338 336 337 335 331 328 322 315 311 316 328 335 336 333 319 295 281 277 271 266 268 274 279 276 274 274 267 264 269 267 257 250 246 243 243 243
329 329 329 330 330 334 336 338 339 337 333 327 322 323 326 329 336 341 341 340 332 318 300 288 280 273 266 271 280 276 271 276 273 264 268 268 254 245 242 241 243 243
333 331 331 329 328 331 334 335 339 340 337 332 328 329 335 338 343 348 349 346 340 334 326 305 289 283 275 279 291 285 268 280 282 264 257 259 251 241 237 236 238 237
336 332 330 326 325 329 330 331 337 339 335 334 334 333 337 342 349 353 355 353 347 343 337 319 299 293 284 282 294 296 281 281 286 269 255 253 249 245 241 236 233 229
335 331 327 323 322 324 324 326 332 335 334 334 333 334 338 344 350 354 356 356 353 349 343 333 318 308 299 288 291 297 289 279 277 277 269 256 246 242 238 233 229 223
332 329 323 319 318 318 319 322 327 332 334 334 332 334 339 344 348 353 356 357 356 351 345 339 331 322 312 303 297 296 296 288 280 283 279 260 244 233 223 221 220 215
329 326 321 315 312 315 318 321 325 329 332 333 334 336 338 341 345 350 354 356 354 348 342 337 334 328 316 308 306 302 298 294 290 295 288 267 249 227 213 213 215 211
331 327 322 316 313 315 319 322 324 327 329 329 331 336 337 338 343 347 350 352 351 347 346 345 344 340 327 313 312 313 307 298 300 303 284 265 266 229 205 205 207 207
333 329 324 319 315 315 317 320 321 324 326 325 327 334 338 336 338 343 345 348 350 349 350 352 352 352 349 332 316 320 327 314 299 304 298 255 317 234 198 199 203 203
329 328 325 321 317 316 316 318 319 320 322 325 327 333 336 333 333 336 338 343 348 348 351 354 355 355 358 351 339 346 3 15 246 257 338 27 24 134 169 178 185 187
323 323 323 321 316 315 315 315 316 316 318 323 327 330 332 332 331 330 331 337 342 343 347 354 1 3 1 357 0 4 12 37 71 196 284 291 285 292 147 150 149 146